Regional Weather Roundup
Issued by NWS

Home | Current Version | Previous Version | Text Only | Print | Product List | Glossary On
Versions: 1 2 3 4 5 6 7 8 9 10 11 12 13 14 15 16 17 18 19 20 21 22 23 24 25 26 27 28 29 30 31 32 33 34 35 36 37 38 39 40 41 42 43 44 45 46 47 48 49 50
000
ASUS44 KFWD 032315
RWRTX
NORTH TEXAS HOURLY WEATHER ROUNDUP
NATIONAL WEATHER SERVICE FORT WORTH TX
600 PM CDT MON AUG 03 2015

NOTE: "FAIR" INDICATES FEW OR NO CLOUDS BELOW 12,000 FEET WITH NO
SIGNIFICANT WEATHER AND/OR OBSTRUCTIONS TO VISIBILITY.

TXZ118-119-040000-
DALLAS/FORT WORTH METROPLEX

CITY           SKY/WX    TMP DP  RH WIND       PRES   REMARKS
DFW AIRPORT    PTSUNNY   97  57  26 SE13      29.86F HX  96
DALLAS LOVE    PTSUNNY   97  58  27 SE3       29.85F HX  96
FTW MEACHAM    MOSUNNY   98  58  26 SE8       29.85F HX  97
DAL-EXECUTIVE  MOSUNNY   98  59  27 E9        29.86F HX  98
FTW-ALLIANCE   PTSUNNY   98  58  26 SE8       29.86F HX  97
FTW-NAS-JRB    PTSUNNY   98  58  26 SE7       29.86F HX  97
FTW-SPINKS     SUNNY     99  57  25 S7        29.87F HX  97
ARLINGTON      MOSUNNY   99  56  23 E9        29.86F HX  97
GRAND PRAIRIE  SUNNY     99  61  28 NE10G17   29.86F HX  99
ADDISON        MOSUNNY   97  57  26 E8        29.87  HX  95
MESQUITE       MOSUNNY   97  55  24 E5        29.87F HX  95
LANCASTER      MOSUNNY   98  56  24 SE9       29.87F HX  96
$$

TXZ091>094-102>105-117-120-121-131>134-040000-
NORTH CENTRAL TEXAS

CITY           SKY/WX    TMP DP  RH WIND       PRES   REMARKS
SHRMAN/DENISON PTSUNNY   94  62  34 CALM      29.89F HX  95
GAINESVILLE    CLOUDY    92  59  32 SE5       29.90F HX  92
BOWIE          PTSUNNY   92  63  37 S5        29.89F HX  93
DECATUR        CLOUDY    95  57  27 E10       29.89F HX  93
DENTON         CLOUDY    97  60  29 SE6       29.86F HX  97
MCKINNEY       MOSUNNY   96  60  30 VRB5      29.87F HX  96
GREENVILLE     MOSUNNY   97  55  24 S8        29.88F HX  95
ROCKWALL       MOSUNNY   97  62  30 E8        29.86F HX  98
TERRELL        SUNNY     97  61  30 E8        29.87F HX  97
WAXAHACHIE     SUNNY     98  62  30 E7        29.88F HX  98
CLEBURNE       MOSUNNY   99  59  26 SE8G15    29.88F HX  98
GRANBURY       SUNNY     98  58  25 E7        29.87F HX  98
$$

TXZ083>090-098>101-113>116-127>130-139>142-154-155-040000-
WESTERN NORTH TEXAS

CITY           SKY/WX    TMP DP  RH WIND       PRES   REMARKS
WICHITA FALLS  PTSUNNY   92  69  47 SE9       29.88F HX  97
WF-KICKAPOO    PTSUNNY   92  67  43 SE6       29.90S HX  95
VERNON         PTSUNNY   88  63  43 SE9       29.90F
ABILENE        MOSUNNY   97  61  30 SE15      29.89F HX  97
ABILENE-DYESS  SUNNY     97  64  33 SE15      29.87F HX  99
BRECKENRIDGE   MOSUNNY   98  58  26 S10       29.87F HX  97
GRAHAM         PTSUNNY   94  67  41 E5        29.86F HX  97
MINERAL WELLS  MOSUNNY   94  68  42 S5        29.86F HX  98
STEPHENVILLE   SUNNY     96  60  30 E8        29.91F HX  96
COMANCHE       MOSUNNY   97  63  32 SE10      29.89F HX  98
BROWNWOOD      LGT RAIN  95  59  30 E12G18    29.88F HX  94
COLEMAN        SUNNY     96  63  33 E8        29.89F HX  97
BRADY          MOSUNNY   97  61  30 E8        29.89F HX  97
$$

TXZ143>147-156>162-174-175-040000-
CENTRAL TEXAS

CITY           SKY/WX    TMP DP  RH WIND       PRES   REMARKS
WACO           MOSUNNY   98  59  27 E8        29.86F HX  98
WACO-TSTC      MOSUNNY   97  57  26 SE6       29.85F HX  95
HILLSBORO      SUNNY     98  57  25 SE6       29.87F HX  96
CORSICANA      SUNNY     98  60  28 SE7       29.88F HX  98
MEXIA          SUNNY     96  62  32 E10G22    29.86F HX  96
HEARNE         MOSUNNY   96  63  33 SE7       29.87S HX  97
CAMERON        MOSUNNY   98  62  31 E8        29.86F HX  99
TEMPLE         SUNNY     97  59  28 E9        29.87F HX  96
KILLEEN        SUNNY     95  58  28 E13       29.87F HX  94
KILLEEN-SKYLRK SUNNY     97  61  30 E13       29.87F HX  97
FORT HOOD      SUNNY     96  59  29 E8        29.86F HX  96
GATESVILLE     SUNNY     97  59  28 CALM      29.89F HX  96
HAMILTON       PTSUNNY   96  57  27 E10       29.90F HX  94
LAMPASAS       SUNNY     97  58  27 E7        29.88F HX  96
$$

TXZ095>097-106>112-122>126-135>138-148>153-164>167-040000-
EAST TEXAS

CITY           SKY/WX    TMP DP  RH WIND       PRES   REMARKS
PARIS          MOSUNNY   97  63  32 E10       29.88F HX  98
SULPHUR SPRNGS PTSUNNY   98  57  26 S7        29.89F HX  96
MOUNT PLEASANT SUNNY     95  58  29 SE5       29.89F HX  94
GILMER         SUNNY     96  60  29 SE8       29.87F HX  96
MINEOLA        SUNNY     97  52  21 SE3       29.89S HX  94
TYLER          MOSUNNY   98  60  28 SE8       29.88F HX  98
LONGVIEW       MOSUNNY   99  59  26 SW3       29.87F HX  99
MARSHALL       SUNNY     99  59  27 E5        29.90S HX  98
ATHENS         SUNNY     95  61  31 E6        29.86F HX  95
PALESTINE      SUNNY     98  58  26 E6        29.88F HX  97
JACKSONVILLE   SUNNY     96  57  26 SE5       29.91F HX  95
HENDERSON      MOSUNNY   95  58  28 E5        29.89F HX  94
CENTER         FAIR      98  59  27 CALM      29.87F HX  98
NACOGDOCHES    SUNNY     95  63  34 E6        29.87F HX  96
LUFKIN         MOSUNNY   96  63  33 E6        29.87F HX  97
$$

SUPPLEMENTAL OBSERVATIONS (CENTRAL)

CITY           SKY/WX    TMP DP  RH WIND       PRES   REMARKS
LAKE TEXOMA      N/A     93  64  38 E2          N/A  HX  95
CADDO GRASSLND   N/A     93  59  31 SE2         N/A  HX  92
PAT MAYSE LAKE   N/A     97  57  26 E5          N/A  HX  95
GREENVILLE       N/A     97  55  24 S7          N/A  HX  95
CEDAR HILL       N/A    100  59  25 SE7         N/A  HX 100
LAKE LIMESTONE   N/A     97  55  24 E8          N/A  HX  95
MCGREGOR         N/A     97  55  24 SE9G17      N/A  HX  95
TEMPLE           N/A     97  61  30 SE9         N/A  HX  97
$$

SUPPLEMENTAL OBSERVATIONS (WEST)

CITY           SKY/WX    TMP DP  RH WIND       PRES   REMARKS
MILLERS CREEK    N/A     93  64  38 SE6         N/A  HX  95
POSSUM KINGDOM   N/A     99  63  30 SE9         N/A  HX 100
LBJ GRASSLAND    N/A    N/A N/A N/A SE5         N/A
GRANBURY         N/A     99  57  25 E9          N/A  HX  97
COMANCHE         N/A     95  59  30 E10         N/A  HX  94
HAMBY            N/A     99  63  30 SE9         N/A  HX 100
IVIE RESERVOIR   N/A     99  59  26 SE8G17      N/A  HX  98
COLORADO BEND    N/A     95  55  26 SE9         N/A  HX  93
$$

SUPPLEMENTAL OBSERVATIONS (EAST)

CITY           SKY/WX    TMP DP  RH WIND       PRES   REMARKS
CLARKSVILLE      N/A     97  61  30 SE6         N/A  HX  97
TEXARKANA        N/A     99  64  32 S2          N/A  HX 101
LINDEN           N/A     99  59  26 SE3         N/A  HX  98
CADDO LAKE       N/A     99  63  30 E3          N/A  HX 100
GILMER           N/A     97  59  28 SE6         N/A  HX  96
HENDERSON        N/A     97  54  23 SE8         N/A  HX  94
LUFKIN           N/A     97  63  32 MISG        N/A  HX  98
N SABINE NF      N/A     99  64  32 MISG        N/A  HX 101
S SABINE NF      N/A     99  63  30 CALM        N/A  HX 100
$$

SUPPLEMENTAL OBSERVATIONS ARE A COLLECTION OF AUTOMATED INSTRUMENTS
THAT ARE MAINTAINED BY A VARIETY OF FEDERAL AND STATE AGENCIES.
CERTAIN ELEMENTS...SUCH AS HUMIDITY VALUES AND SUSTAINED WIND
SPEEDS...MAY BE APPROXIMATED.



USA.gov is the U.S. government's official web portal to all federal, state and local government web resources and services.